Location: Brivio
(45.7333°N, 9.4500°E)
Time: 21:10:15
(UTC+00:00)

CZ-2C R/B - Pass Details

Date: 18 October 2019
Orbit: 703 x 909 km, 98.1° (Epoch: 17 November)

Event Time Altitude Azimuth Distance (km) Brightness Sun altitude
Exits shadow 19:12:02 39° 20° (NNE) 1,330 4.1 -28.5°
Drops below altitude 10° 19:15:54 10° 355° (N) 2,586 5.9 -29.1°
Sets 19:18:21 0° 351° (N) 3,515 6.7 -29.5°
